EW6657 Weather Reports


Display with metric or nautical units.
time (UTC)temp
F
wind
direction
speed
MPH
gust
MPH
rain 1hr
in
rain 24hr
in
rain mn
in
humidity
%
barometer
mb
20260510134705 72 15 0.0 0.0 0.00 0.34 0.00 97 1015.7
20260510133705 72 14 0.0 2.0 0.00 0.34 0.00 97 1015.5
20260510133205 72 14 0.0 0.0 0.00 0.34 0.00 97 1015.7
20260510132705 72 14 1.0 2.0 0.00 0.34 0.00 97 1015.5
20260510132205 72 14 0.0 0.0 0.00 0.34 0.00 97 1015.6
20260510131204 71 14 0.0 0.0 0.00 0.34 0.00 97 1015.5
20260510130704 71 14 0.0 0.0 0.00 0.34 0.00 97 1015.4
20260510130205 71 14 0.0 0.0 0.00 0.34 0.00 97 1015.4
20260510125705 71 14 0.0 0.0 0.00 0.34 0.00 97 1015.4
20260510125204 70 14 0.0 0.0 0.00 0.34 0.00 97 1015.4
20260510124705 70 14 0.0 0.0 0.00 0.34 0.00 97 1015.4
20260510124205 70 14 0.0 0.0 0.00 0.34 0.00 97 1015.3
20260510123705 69 14 0.0 0.0 0.00 0.34 0.00 97 1015.2
20260510123205 69 14 0.0 0.0 0.00 0.34 0.00 97 1015.1
20260510122705 69 14 0.0 0.0 0.00 0.34 0.00 97 1015.1
20260510122205 69 14 0.0 0.0 0.00 0.34 0.00 97 1015.0
20260510121705 68 122 0.0 0.0 0.00 0.34 0.00 97 1014.9
20260510121205 68 122 0.0 1.0 0.00 0.34 0.00 96 1014.9
20260510120704 68 122 0.0 0.0 0.00 0.34 0.00 96 1014.9
20260510120205 68 122 0.0 0.0 0.00 0.34 0.00 97 1014.9
20260510115705 68 123 0.0 0.0 0.00 0.34 0.00 97 1014.7
20260510115204 68 123 0.0 0.0 0.00 0.34 0.00 96 1014.6
20260510114705 68 123 0.0 0.0 0.00 0.34 0.00 96 1014.5
20260510113205 67 148 0.0 0.0 0.00 0.34 0.00 96 1014.3
20260510112705 67 148 0.0 0.0 0.00 0.34 0.00 96 1014.3
20260510112206 67 148 0.0 0.0 0.00 0.34 0.00 96 1014.3
20260510111704 67 148 0.0 0.0 0.00 0.34 0.00 96 1014.3
20260510111205 67 148 0.0 0.0 0.00 0.34 0.00 96 1014.1
20260510110204 67 154 0.0 1.0 0.00 0.34 0.00 96 1014.0
20260510105704 67 154 0.0 1.0 0.00 0.34 0.00 96 1014.0
20260510105205 67 154 0.0 0.0 0.00 0.34 0.00 96 1013.8
20260510104705 67 154 0.0 0.0 0.00 0.34 0.00 96 1013.7
20260510104205 67 154 0.0 0.0 0.00 0.34 0.00 96 1013.4
20260510103711 67 154 0.0 0.0 0.00 0.34 0.00 96 1013.5
20260510103205 67 154 0.0 0.0 0.00 0.34 0.00 96 1013.5
20260510102705 67 154 0.0 0.0 0.00 0.34 0.00 96 1013.4
20260510102205 67 154 0.0 0.0 0.00 0.34 0.00 96 1013.3
20260510101705 67 154 0.0 0.0 0.00 0.34 0.00 96 1013.3
20260510101204 67 154 0.0 0.0 0.00 0.34 0.00 96 1013.1
20260510100710 67 154 0.0 0.0 0.00 0.34 0.00 96 1013.1
20260510100205 67 154 0.0 0.0 0.00 0.34 0.00 96 1012.9
20260510095704 67 154 0.0 0.0 0.00 0.34 0.00 96 1013.0
20260510095206 67 154 0.0 0.0 0.00 0.34 0.00 96 1013.0
20260510094705 67 154 0.0 0.0 0.00 0.34 0.00 96 1013.1
20260510094205 67 154 0.0 0.0 0.00 0.34 0.00 96 1013.0
20260510093710 67 154 0.0 0.0 0.00 0.34 0.00 96 1013.0
20260510092705 67 154 0.0 0.0 0.00 0.34 0.00 96 1012.9
20260510092206 67 154 0.0 0.0 0.00 0.34 0.00 96 1013.0
20260510091705 67 154 0.0 0.0 0.00 0.34 0.00 96 1012.9
20260510091205 67 154 0.0 0.0 0.00 0.34 0.00 96 1012.8
20260510090704 67 154 0.0 0.0 0.00 0.34 0.00 95 1012.7
20260510090205 67 154 0.0 0.0 0.00 0.34 0.00 95 1012.7
20260510085704 67 154 0.0 0.0 0.00 0.34 0.00 96 1012.6
20260510085205 67 154 0.0 0.0 0.00 0.34 0.00 96 1012.5
20260510084705 67 154 0.0 0.0 0.00 0.34 0.00 96 1012.5
20260510084204 67 154 0.0 0.0 0.00 0.34 0.00 96 1012.5
20260510083204 67 154 0.0 0.0 0.00 0.34 0.00 96 1012.4
20260510082705 67 154 0.0 0.0 0.00 0.34 0.00 96 1012.3
20260510082209 67 154 0.0 0.0 0.00 0.34 0.00 96 1012.2
20260510081704 67 154 0.0 0.0 0.00 0.34 0.00 96 1012.3
20260510081205 67 154 0.0 0.0 0.00 0.34 0.00 96 1012.3
20260510080704 67 154 0.0 0.0 0.00 0.34 0.00 96 1012.3
20260510080205 67 154 0.0 0.0 0.00 0.34 0.00 96 1012.2
20260510075704 67 154 0.0 0.0 0.00 0.34 0.00 96 1012.1
20260510075206 67 154 0.0 0.0 0.00 0.34 0.00 96 1012.1
20260510074705 67 154 0.0 0.0 0.00 0.34 0.00 96 1012.0
20260510074204 67 154 0.0 0.0 0.00 0.34 0.00 96 1012.0
20260510073705 67 154 0.0 0.0 0.00 0.34 0.00 96 1012.1
20260510073204 67 154 0.0 0.0 0.00 0.34 0.00 96 1012.1
20260510072704 67 154 0.0 0.0 0.00 0.34 0.00 96 1012.2
20260510071704 67 154 0.0 0.0 0.00 0.34 0.00 96 1012.2
20260510071205 67 154 0.0 0.0 0.00 0.34 0.00 95 1012.2
20260510070705 67 154 0.0 0.0 0.00 0.34 0.00 95 1012.2
20260510070204 67 155 0.0 0.0 0.00 0.34 0.00 96 1012.2
20260510065705 67 155 0.0 0.0 0.00 0.34 0.00 96 1012.3
20260510065205 67 155 0.0 0.0 0.00 0.34 0.00 96 1012.4
20260510064704 67 155 0.0 0.0 0.00 0.34 0.00 95 1012.4
20260510064205 67 155 0.0 0.0 0.00 0.34 0.00 95 1012.4
20260510063705 67 155 0.0 0.0 0.00 0.34 0.00 95 1012.3
20260510063204 68 155 0.0 0.0 0.00 0.34 0.00 96 1012.5
20260510062704 67 155 0.0 0.0 0.00 0.34 0.00 95 1012.5
20260510062205 68 155 0.0 0.0 0.00 0.34 0.00 95 1012.4
20260510061705 68 155 0.0 0.0 0.00 0.34 0.00 95 1012.4
20260510061204 68 155 0.0 0.0 0.00 0.34 0.00 95 1012.5
20260510060704 68 155 0.0 0.0 0.00 0.34 0.00 96 1012.5
20260510060204 68 159 0.0 0.0 0.00 0.34 0.00 96 1012.7
20260510055704 68 159 0.0 0.0 0.00 0.34 0.00 95 1012.7
20260510054205 68 159 0.0 0.0 0.00 0.34 0.00 96 1012.8
20260510053704 69 159 0.0 0.0 0.00 0.34 0.00 96 1012.8
20260510053204 69 159 0.0 0.0 0.00 0.34 0.00 96 1012.9
20260510052704 69 159 0.0 1.0 0.00 0.34 0.00 96 1012.8
20260510052204 69 159 0.0 2.0 0.00 0.34 0.00 96 1012.9
20260510051704 68 159 0.0 2.0 0.00 0.34 0.00 96 1012.9
20260510051204 68 159 0.0 2.0 0.00 0.34 0.00 96 1012.9
20260510050705 68 159 0.0 2.0 0.00 0.34 0.00 95 1013.0
20260510050204 68 159 1.0 3.0 0.00 0.34 0.00 96 1013.0
20260510045719 68 158 2.0 3.0 0.00 0.34 0.00 95 1013.1
20260510045218 68 142 1.0 2.0 0.00 0.34 0.00 95 1013.1
20260510044719 68 140 1.0 2.0 0.00 0.34 0.00 95 1013.1
20260510044219 68 136 2.0 3.0 0.00 0.34 0.00 95 1013.2
20260510043720 68 146 0.0 0.0 0.00 0.34 0.00 95 1013.3
20260510043219 68 146 0.0 0.0 0.00 0.34 0.00 95 1013.4
20260510042718 68 146 0.0 0.0 0.00 0.34 0.00 95 1013.6
20260510042219 68 146 0.0 0.0 0.00 0.34 0.00 95 1013.7
20260510041719 68 146 0.0 3.0 0.00 0.34 0.00 95 1013.8
20260510041219 68 146 1.0 3.0 0.00 0.34 0.00 95 1013.8
20260510040719 68 146 2.0 3.0 0.00 0.34 0.00 95 1013.9
20260510040219 68 146 2.0 3.0 0.00 0.34 0.00 95 1013.9
20260510035719 68 146 1.0 3.0 0.00 0.34 0.34 95 1013.9
20260510034718 68 145 1.0 3.0 0.00 0.34 0.34 95 1013.9
20260510033719 68 355 0.0 0.0 0.00 0.34 0.34 95 1013.9
20260510033219 68 355 0.0 0.0 0.00 0.34 0.34 95 1013.9
20260510032719 68 355 0.0 0.0 0.00 0.34 0.34 95 1013.9
20260510031718 68 355 0.0 0.0 0.00 0.34 0.34 95 1013.8
20260510030718 68 355 0.0 0.0 0.00 0.34 0.34 95 1013.8
20260510030219 68 355 0.0 0.0 0.00 0.34 0.34 95 1013.8
20260510025719 68 355 2.0 3.0 0.00 0.34 0.34 95 1013.8
20260510025219 68 355 0.0 1.0 0.00 0.34 0.34 95 1013.7
20260510024718 68 355 0.0 2.0 0.00 0.34 0.34 95 1013.7
20260510024219 69 355 0.0 2.0 0.00 0.34 0.34 95 1013.7
20260510023719 69 355 1.0 2.0 0.00 0.34 0.34 95 1013.7
20260510022719 69 355 0.0 0.0 0.00 0.34 0.34 95 1013.6
20260510021718 68 355 0.0 0.0 0.00 0.34 0.34 95 1013.5
20260510021219 69 355 0.0 0.0 0.00 0.34 0.34 95 1013.3
20260510020219 69 355 0.0 0.0 0.00 0.34 0.34 95 1013.3
20260510015718 69 355 0.0 0.0 0.00 0.34 0.34 95 1013.3
20260510014218 69 355 0.0 0.0 0.00 0.34 0.34 95 1012.7
20260510013718 69 355 0.0 0.0 0.00 0.34 0.34 94 1012.7
20260510013218 69 355 0.0 0.0 0.00 0.34 0.34 94 1012.7
20260510012718 69 355 0.0 0.0 0.00 0.34 0.34 94 1012.9
20260510012219 69 355 0.0 0.0 0.00 0.34 0.34 94 1012.7
20260510011719 69 355 0.0 0.0 0.00 0.34 0.34 94 1012.7
20260510011220 69 355 0.0 0.0 0.00 0.35 0.34 94 1012.4
20260510010719 69 355 0.0 0.0 0.00 0.36 0.34 94 1012.5
20260510010218 69 355 0.0 0.0 0.00 0.36 0.34 94 1012.5
20260510005719 69 355 0.0 0.0 0.00 0.36 0.34 94 1012.6
20260510005218 69 355 0.0 0.0 0.00 0.37 0.34 94 1012.5
20260510003719 69 355 0.0 2.0 0.00 0.38 0.34 94 1012.2
20260510003218 69 355 0.0 2.0 0.00 0.38 0.34 94 1012.3
20260510002718 69 355 1.0 3.0 0.00 0.38 0.34 94 1012.3
20260510002218 69 355 1.0 3.0 0.00 0.38 0.34 94 1012.3
20260510001718 69 355 0.0 2.0 0.00 0.38 0.34 94 1012.3
20260510000219 69 355 1.0 3.0 0.01 0.38 0.34 94 1012.4
20260509235718 69 355 1.0 3.0 0.01 0.38 0.34 94 1012.4
20260509235218 69 355 0.0 0.0 0.02 0.38 0.34 94 1012.5
20260509234718 69 355 0.0 3.0 0.04 0.38 0.34 94 1012.5
20260509234219 69 355 1.0 2.0 0.05 0.39 0.34 94 1012.4
20260509233218 69 355 2.0 3.0 0.06 0.40 0.34 93 1012.3
20260509232719 69 355 1.0 3.0 0.07 0.44 0.34 93 1012.5
20260509232218 69 355 0.0 0.0 0.08 0.68 0.34 93 1012.6
20260509231719 69 355 0.0 0.0 0.10 0.76 0.34 93 1012.7
20260509225718 70 355 0.0 0.0 0.19 0.75 0.33 93 1012.9
20260509225219 70 355 0.0 0.0 0.18 0.74 0.32 92 1013.0
20260509224718 70 355 0.0 0.0 0.16 0.72 0.30 92 1013.1
20260509224219 70 355 0.0 0.0 0.15 0.71 0.29 92 1013.1
20260509223718 70 355 0.0 0.0 0.14 0.70 0.28 92 1013.2
20260509223218 70 355 0.0 0.0 0.14 0.70 0.28 92 1013.3
20260509222218 70 355 0.0 0.0 0.12 0.68 0.26 92 1013.4
20260509221219 70 355 0.0 0.0 0.04 0.60 0.18 92 1013.3
20260509220718 70 355 0.0 0.0 0.02 0.58 0.16 92 1013.1
20260509220218 71 355 0.0 0.0 0.01 0.57 0.15 92 1013.1
20260509215718 71 355 0.0 0.0 0.00 0.56 0.14 92 1013.1
20260509215218 71 355 0.0 0.0 0.00 0.56 0.14 92 1012.9
20260509214718 70 355 0.0 0.0 0.01 0.56 0.14 91 1012.9
20260509214218 70 355 0.0 0.0 0.02 0.56 0.14 91 1012.7
20260509213718 70 355 0.0 0.0 0.02 0.56 0.14 91 1012.7
20260509213217 70 355 0.0 0.0 0.03 0.56 0.14 91 1012.7
20260509212718 71 355 0.0 0.0 0.03 0.56 0.14 91 1012.7
20260509212218 71 355 0.0 0.0 0.03 0.56 0.14 91 1012.6
20260509211218 71 355 0.0 0.0 0.03 0.56 0.14 90 1012.4
20260509210718 71 355 0.0 0.0 0.03 0.56 0.14 90 1012.3
20260509210218 71 355 0.0 0.0 0.03 0.56 0.14 90 1012.3
20260509205218 71 355 0.0 0.0 0.03 0.56 0.14 90 1012.3
20260509204719 71 355 0.0 1.0 0.03 0.55 0.13 90 1012.2
20260509204218 71 339 0.0 2.0 0.02 0.54 0.12 90 1012.2
20260509203718 71 338 0.0 0.0 0.02 0.54 0.12 89 1012.3
20260509203218 71 338 1.0 2.0 0.01 0.53 0.11 89 1012.3
20260509202718 71 319 0.0 3.0 0.01 0.53 0.11 89 1012.3
20260509202218 71 309 1.0 3.0 0.01 0.53 0.11 88 1012.3
20260509201718 71 328 2.0 3.0 0.01 0.53 0.11 88 1012.3
20260509201219 71 325 2.0 6.0 0.01 0.53 0.11 88 1012.2
20260509200718 72 358 3.0 8.0 0.01 0.53 0.11 87 1012.3
20260509200218 72 17 2.0 7.0 0.01 0.53 0.11 86 1012.3
20260509195718 73 11 1.0 3.0 0.02 0.54 0.11 86 1012.4
20260509195218 73 12 2.0 7.0 0.02 0.55 0.11 85 1012.2
20260509194718 73 342 3.0 12.0 0.01 0.54 0.10 84 1012.3
20260509194218 74 354 3.0 8.0 0.01 0.54 0.10 84 1012.4
20260509193718 75 0 4.0 10.0 0.01 0.54 0.10 84 1012.3
20260509193218 76 4 3.0 14.0 0.01 0.54 0.10 85 1012.3
20260509192718 77 306 2.0 9.0 0.01 0.54 0.10 88 1012.1
20260509192217 77 282 1.0 3.0 0.01 0.54 0.10 89 1012.1
20260509191218 77 261 2.0 5.0 0.01 0.54 0.10 88 1012.3
20260509190718 77 221 1.0 6.0 0.01 0.54 0.10 88 1012.4
20260509190218 77 231 2.0 7.0 0.01 0.54 0.10 88 1012.4
20260509185218 77 313 0.0 3.0 0.00 0.53 0.09 89 1012.4
20260509183717 77 289 2.0 6.0 0.04 0.53 0.09 88 1012.5
20260509183218 77 230 2.0 5.0 0.09 0.53 0.09 88 1012.5
20260509182718 77 211 2.0 5.0 0.09 0.53 0.09 89 1012.4
20260509182217 76 254 0.0 0.0 0.09 0.53 0.09 89 1012.3
20260509180718 76 251 0.0 0.0 0.09 0.53 0.09 87 1012.5
20260509180218 76 252 0.0 2.0 0.09 0.53 0.09 86 1012.6
20260509175718 77 252 1.0 3.0 0.09 0.53 0.09 85 1012.7
20260509175218 78 252 1.0 3.0 0.09 0.53 0.09 85 1012.7
20260509174218 79 217 3.0 6.0 0.09 0.53 0.09 82 1012.9
20260509173718 79 287 1.0 3.0 0.05 0.49 0.05 81 1012.6
20260509173218 80 263 0.0 2.0 0.00 0.44 0.00 80 1012.7
20260509172718 80 229 0.0 3.0 0.00 0.44 0.00 79 1012.6
20260509172218 80 231 2.0 5.0 0.00 0.44 0.00 78 1012.7
20260509171717 80 231 2.0 5.0 0.00 0.44 0.00 78 1012.6
20260509171218 80 296 0.0 0.0 0.00 0.44 0.00 79 1012.6
20260509170717 80 240 1.0 7.0 0.00 0.44 0.00 78 1012.8
20260509170217 80 236 3.0 7.0 0.00 0.44 0.00 77 1012.8
20260509165718 80 248 3.0 6.0 0.00 0.44 0.00 77 1012.9
20260509164717 80 250 2.0 7.0 0.00 0.44 0.00 77 1012.9
20260509164218 80 247 3.0 6.0 0.00 0.44 0.00 76 1012.7
20260509163718 80 226 4.0 7.0 0.00 0.44 0.00 76 1012.6
20260509163218 80 241 4.0 8.0 0.00 0.44 0.00 76 1012.8
20260509162718 80 265 2.0 6.0 0.00 0.44 0.00 77 1012.8
20260509162217 80 236 3.0 6.0 0.00 0.44 0.00 77 1012.9
20260509160218 79 202 2.0 7.0 0.00 0.44 0.00 80 1013.1
20260509155718 79 213 2.0 5.0 0.00 0.44 0.00 81 1013.0
20260509155218 79 225 0.0 2.0 0.00 0.44 0.00 81 1013.0
20260509154218 78 242 2.0 5.0 0.00 0.44 0.00 82 1012.8
20260509153718 78 240 2.0 5.0 0.00 0.44 0.00 81 1012.7
20260509153217 78 253 3.0 3.0 0.00 0.44 0.00 82 1012.3
20260509152717 78 216 1.0 3.0 0.00 0.44 0.00 82 1012.2
20260509152218 78 135 2.0 3.0 0.00 0.44 0.00 83 1012.5
20260509151717 78 170 1.0 3.0 0.00 0.44 0.00 84 1012.5
20260509151218 77 261 1.0 3.0 0.00 0.44 0.00 84 1012.6
20260509150718 77 261 2.0 3.0 0.00 0.44 0.00 83 1012.6
20260509150217 77 257 0.0 2.0 0.00 0.44 0.00 84 1012.5
20260509145717 77 148 0.0 3.0 0.00 0.44 0.00 84 1012.5
20260509144718 77 216 1.0 5.0 0.00 0.44 0.00 86 1012.5
20260509144217 76 244 2.0 6.0 0.00 0.44 0.00 86 1012.7
20260509143717 76 251 3.0 8.0 0.00 0.44 0.00 86 1012.7
20260509143217 76 218 2.0 8.0 0.00 0.44 0.00 86 1012.7
20260509142718 76 267 3.0 8.0 0.00 0.44 0.00 86 1012.8
20260509142217 76 211 4.0 8.0 0.00 0.44 0.00 86 1013.0
20260509141718 75 217 3.0 6.0 0.00 0.44 0.00 87 1013.1
20260509141217 75 201 2.0 5.0 0.00 0.44 0.00 87 1013.0
20260509140222 75 233 3.0 7.0 0.00 0.44 0.00 87 1012.8
20260509135718 75 217 2.0 3.0 0.00 0.44 0.00 87 1012.8
20260509135217 75 154 1.0 3.0 0.00 0.44 0.00 88 1012.8